User: anonymous   Login
Location: CNYAC Observatory
(43.2150°N, 74.9500°W)
Time: 02:37:00
(UTC-05:00)
Language:

Meteor 1-22 Rocket - Orbit

View from above orbital plane
View from above orbital plane
View from above satellite
View from above satellite

Ground track
Ground track

The orbit data is extracted from the following two-line orbital elements,

1 08294U 75087B   14350.71935556  .00000012  00000-0 -11053-5 0  1423
2 08294 081.2155 192.9261 0107191 099.0520 308.4638 14.08516240 16269
Epoch (UTC): 16 December 2014 17:15:52
Eccentricity: 0.0107191
inclination: 81.2155°
perigee height: 787 km
apogee height: 942 km
right ascension of ascending node: 192.9261°
argument of perigee: 99.0520°
revolutions per day: 14.08516240
mean anomaly at epoch: 308.4638°
orbit number at epoch: 1626

The dashed part of the orbit path shows where the satellite is in the earth's shadow,  

DLR